Regional Weather Roundup
Issued by NWS

Home | Current Version | Previous Version | Graphics & Text | Print | Product List | Glossary On
Versions: 1 2 3 4 5 6 7 8 9 10 11 12 13 14 15 16 17 18 19 20 21 22 23 24 25 26 27 28 29 30 31 32 33 34 35 36 37 38 39 40 41 42 43 44 45 46 47 48 49 50
541
ASUS43 KLOT 161004
RWRIL

ILLINOIS REGIONAL WEATHER ROUNDUP
NATIONAL WEATHER SERVICE CHICAGO/ROMEOVILLE IL
500 AM CDT WED AUG 16 2017

NOTE: "FAIR" INDICATES FEW OR NO CLOUDS BELOW 12,000 FEET WITH NO
SIGNIFICANT WEATHER AND/OR OBSTRUCTIONS TO VISIBILITY.

* THESE STATIONS ARE NOT UNDER NWS QUALITY CONTROL. THEY ALSO MAY NOT
  REPORT WEATHER SUCH AS PRECIPITATION OR FOG.

ILZ001-002-007-009-015-016-024-161100-
NORTHWEST ILLINOIS

CITY           SKY/WX    TMP DP  RH WIND       PRES   REMARKS
MOLINE         CLEAR     67  64  90 E8        29.94S FOG
STERLING*      PTCLDY    63  62  97 E6        29.98S FOG
SAVANNA*       MOCLDY    64  61  90 E6        29.98S
$$

ILZ003-004-008-010-011-017-018-161100-
NORTH CENTRAL ILLINOIS

CITY           SKY/WX    TMP DP  RH WIND       PRES   REMARKS
ROCKFORD       MOCLDY    65  60  84 NE6       30.01R
FREEPORT*      PTCLDY    58  58  98 E3        30.02R
ROCHELLE*      CLOUDY    64  63  94 E7        30.00S
PERU*          CLEAR     64  62  94 E7        29.98S FOG
$$

ILZ005-006-012>014-019>023-161100-
NORTHEAST ILLINOIS

CITY           SKY/WX    TMP DP  RH WIND       PRES   REMARKS
CHICAGO-OHARE  MOCLDY    68  62  81 NE5       29.99S
CHICAGO-MIDWAY PTCLDY    70  64  81 E5        29.99S
AURORA         CLEAR     61  61 100 NE3       29.99S
LANSING*       PTCLDY    64  61  92 CALM      29.99S FOG
JOLIET*        PTCLDY    68  65  92 CALM      29.98F
WAUKEGAN       PTCLDY    61  61 100 CALM      30.00S
DUPAGE AIRPORT MOCLDY    63  63 100 N5        30.00R
WHEELING       PTCLDY    63  63 100 CALM      30.01S
MORRIS*        CLEAR     63  61  95 N3        29.97F FOG
NORTHERLY ISL    N/A     71  64  78 E7          N/A
$$

LMZ740>746-161100-
SOUTHERN LAKE MICHIGAN

STATION/POSITION SKY/WX   TEMP    WIND        PRES    VSBY  WAVE
                          AIR SEA DIR/SP/G                  HT/PER
                          (F)     (DEG/KT/KT) (MB)    (MI)  (FT/S)
SOUTHERN BUOY              70 71   50/  6/  8 1015.6          1/ 4
WILMETTE HARBOR            71 72   70/  6/  8   N/A           2/ 5
HARRISON CRIB              72      80/  8/  8   N/A
CALUMET HARBOR             72      50/  6/  8 1015.0S
BURNS HARBOR               69      80/  7/  8 1016.3R
MICHIGAN CITY              66      90/  3/  3   N/A
MICHIGAN CITY 6N           70 74  100/  6/  8   N/A           2/ 5
ST. JOSEPH                 69 73  120/  4/  4 1015.6R         2/ 5
$$

ILZ025>027-034>036-040-047-049-050-058-095>099-161100-
WEST-CENTRAL ILLINOIS

CITY           SKY/WX    TMP DP  RH WIND       PRES   REMARKS
QUINCY         CLOUDY    71  69  93 SE7       29.89F
GALESBURG*     CLEAR     67  67  97 E5        29.96R
MACOMB*        CLEAR     66  66  99 NE5       29.95F FOG
JACKSONVILLE*  CLEAR     67  66  96 E7        29.93S FOG
PITTSFIELD*    CLEAR     68  67  99 SE6       29.92F FOG
$$

ILZ028>032-037-038-041>044-048-051>054-059>061-161100-
CENTRAL ILLINOIS

CITY           SKY/WX    TMP DP  RH WIND       PRES   REMARKS
PONTIAC        CLEAR     65  65  98 CALM      29.98S
BLOOMINGTON    CLEAR     65  64  97 E5        29.98S FOG
DECATUR        CLEAR     65  64  97 CALM      29.96S
PEORIA         CLEAR     70  69  97 E7        29.95S
LACON*         CLEAR     65  65  98 CALM      29.96R FOG
LINCOLN*       CLEAR     66  66 100 CALM      29.95S FOG
SPRINGFIELD    CLEAR     71  70  96 CALM      29.94S
TAYLORVILLE    CLEAR     69  69  99 SE3       29.95S
$$

ILZ033-039-045-046-055>057-062-063-161100-
EAST-CENTRAL ILLINOIS

CITY           SKY/WX    TMP DP  RH WIND       PRES   REMARKS
CHAMPAIGN      CLEAR     67  65  93 E5        29.98R FOG
RANTOUL*       CLEAR     69  68  96 CALM      29.98R
MATTOON        CLEAR     67  67 100 SE5       29.96S FOG
PARIS*         CLOUDY    65  65 100 CALM      29.99S FOG
$$

ILZ079-100>102-161100-
SOUTHWEST ILLINOIS

CITY           SKY/WX    TMP DP  RH WIND       PRES   REMARKS
BELLEVILLE     CLOUDY    72  71  96 SE6       29.94S
CAHOKIA*       MOCLDY    74  71  91 SE3       29.91F
SPARTA*        CLOUDY    73  72  98 SE6       29.95F
$$

ILZ064>066-069>071-074>076-080>082-084>086-088>090-092>094-161100-
SOUTH-CENTRAL ILLINOIS

CITY           SKY/WX    TMP DP  RH WIND       PRES   REMARKS
CARBONDALE     LGT RAIN  71  71 100 SW3       29.95S
CAIRO*         PTCLDY    70  70 100 CALM      29.95F FOG
EFFINGHAM*     PTCLDY    67  67 100 CALM      29.97F FOG
MARION         MOCLDY    73  73 100 S5        29.96F
MT. VERNON     CLOUDY    68  68 100 N3        29.96F FOG
CENTRALIA*     CLOUDY    68  68 100 CALM      29.95S FOG
SALEM*         MOCLDY    70  68  95 CALM      29.96S FOG
METROPOLIS*    PTCLDY    72  71  99 CALM      29.97F FOG
$$

ILZ067-068-072-073-078-083-087-091-161100-
SOUTHEAST ILLINOIS

CITY           SKY/WX    TMP DP  RH WIND       PRES   REMARKS
LAWRENCEVILLE  PTCLDY    70  68  93 CALM      29.98S FOG
FLORA*         PTCLDY    67  66  96 CALM      29.97S FOG
FAIRFIELD*     PTCLDY    67  67 100 NE3       29.95S FOG
HARRISBURG*    FOG       67  67 100 E3        29.96S VSB 1/4
ROBINSON*      FOG       63  63 100 CALM      29.98S VSB 1/4
CARMI*         FOG       67  67 100 CALM      29.97R VSB 3/4
$$

ABBREVIATIONS USED IN REMARKS
   TC - TEMPERATURE IN CELSIUS
  WCI - WIND CHILL INDEX
   HX - HEAT INDEX
  VSB - VISIBILITY
$$





USA.gov is the U.S. government's official web portal to all federal, state and local government web resources and services.